ONEWEB-0019, 45449

Orbit data source: Space-Track

ONEWEB-0019, 45449 is a payload satellite owned by One Web (UK) in LEO that was launched on Sat, 21 Mar 2020 UTC via a SOYUZ-2-1B launch vehicle from the Tyuratam Missile And Space Complex (TTMTR). Payload-class satellites include a variety of spacecraft equipped with specific instruments for various scientific and technological missions. These include communications satellites like Starlink; space stations such as the ISS; scientific satellites like the Hubble; Earth observation satellites from companies like Planet Labs, Umbra, and HawkEye 360; GPS; miniature CubeSats for education and research; and military/defense satellites.

Loading next visibility...
Identifier
45449, 2020-020AB
Orbit
LEO
Country
Flag of UKUK
Related business
Manufacturer
One Web
Mission
Operational Commercial Communications
Bus & Motor
ARROW, Unknown motor
Mass
148 kg wet, ~140 kg dry
Launch date (UTC)
2020-03-21 (6 years ago)
Launch vehicle
SOYUZ-2-1B
Launch site
Tyuratam Missile And Space Complex (TTMTR)
Object type
Payload
Rocket body
Debris
Shape & HBR
Trap Box + 2 Pan, 6.7 m
Radar Cross Section
3.464 m², Large (>1 m²)

Expand to show TLE details & history
Last TLE update: 15 hours ago

TLE from 15 hours ago
0 ONEWEB-0019
1 45449U 20020AB  26036.52444968 -.00000316  00000-0 -92836-3 0  9992
2 45449  87.8811  47.2545 0001766  95.3780 264.7549 13.11420226285284
Epoch: 2026-02-05T12:35Z
TLE epoch observation values (Epoch: 2026-02-05T12:35:12.452Z)
Latitude
-0.00006°
Longitude
82.77718°
Altitude
1,220.682 km
Speed
7.244 km/s
True Right ascension
03h 09m 01s
True Declination
0° 00' 00"
Sunlit
Object was in daylight at epoch
Visualization orbit readout
Latitude
Unknown
Longitude
Unknown
Altitude
Unknown
Speed
Unknown
Apparent Right ascension
Unknown
Apparent Declination
Unknown
Sunlit
N/A
Visualization observer readout
Local Sidereal Time
05:56:40
Azimuth
Unknown
Elevation
Unknown
Doppler factor
Unknown
Orbital elements
Apogee altitude
1,216.129 km
Perigee altitude
1,213.447 km
Semi-major axis
7,592.925 km
Eccentricity
0.00018
Inclination
87.8811°
RAAN
47.2545°
Arg. of periapsis
95.378°
True anomaly
264.73475°
Mean anomaly
264.7549°
Eccentric anomaly
264.74482°
Mean motion
3.28042 °/min
Orbital period
109.74 mins
BSTAR
-0.00092836
Loading maneuver chart data...
Computing Atmospheric mass density...
Loading historical data...
Loading historical data...
Loading historical data...
Loading historical data...
Loading historical data...
Loading historical data...
Loading historical data...

Documentation

Showing up to 5 results
|